Regional Weather Roundup
Issued by NWS

Home | Current Version | Previous Version | Graphics & Text | Print | Product List | Glossary On
Versions: 1 2 3 4 5 6 7 8 9 10 11 12 13 14 15 16 17 18 19 20 21 22 23 24 25 26 27
000
ASUS45 KBOU 011707
RWRCO

WEATHER ROUNDUP FOR COLORADO
NATIONAL WEATHER SERVICE DENVER/BOULDER CO
1100 AM MDT SUN MAY 01 2016

NOTE: "FAIR" INDICATES FEW OR NO CLOUDS BELOW 12000 FEET WITH NO
SIGNIFICANT WEATHER AND/OR OBSTRUCTIONS TO VISIBILITY.

COZ001>005-013-030-031-011800-
...NORTHWEST COLORADO...

CITY           SKY/WX    TMP DP  RH WIND       PRES   REMARKS
CRAIG            N/A     46  22  38 E24G32    30.13S
HAYDEN         FAIR      43  19  39 E20G30    30.14S
MEEKER         FAIR      49  25  39 S8        30.08F
MOUNT WERNER   NOT AVBL
STEAMBOAT SPGS FAIR      40  22  50 NE18G28   30.16S
WALDEN         FAIR      34  21  60 NE21G29   30.23S WCI  22
$$

COZ006>008-011-011800-
...WEST CENTRAL VALLEYS...

CITY           SKY/WX    TMP DP  RH WIND       PRES   REMARKS
GRAND JUNCTION FAIR      54  25  32 E8        30.03F
MONTROSE       CLOUDY    49  26  41 E15G33    30.07F
EAGLE          SUNNY     46  19  34 NE12G17   30.13F
RIFLE          FAIR      53  21  28 NE18G26   30.06S
DELTA          NOT AVBL
NUCLA          NOT AVBL
$$

COZ017>023-064>068-011800-
...SOUTHWEST COLORADO...

CITY           SKY/WX    TMP DP  RH WIND       PRES   REMARKS
DURANGO        LGT RAIN  35  33  92 SE12      30.09R FOG     WCI  27
CORTEZ         CLOUDY    45  37  73 SE16G22   30.04R
PAGOSA SPRINGS LGT SNOW  35  28  76 NE8       30.12R WCI  28
TELLURIDE      FLURRIES  38  31  78 W6        30.08R
WOLF CREEK PAS LGT SNOW  18  18 100 NE20      30.18R VSB 1   WCI   1
$$

COZ009-010-012-014-032>034-037-058>063-011800-
...CENTRAL COLORADO...

CITY           SKY/WX    TMP DP  RH WIND       PRES   REMARKS
ASPEN          FAIR      44  18  35 SE12G22   30.09S
BUENA VISTA    LGT SNOW  32  23  69 CALM      30.26S
COPPER MTN     NOT AVBL
BERTHOUD PASS  CLOUDY    12   3  67 MISG      30.17F
COTTONWOOD PAS LGT SNOW  30  23  74 E9        30.25S VSB 1   WCI  22
GUNNISON       FAIR      34  25  69 E14       30.20R WCI  24
KREMMLING      FAIR      41  18  38 E16G23    30.19F
LEADVILLE      FLURRIES  23  17  78 S21G28    30.19S WCI   8
MONARCH PASS   CLOUDY    16  12  86 MISG      30.25R
SALIDA         CLOUDY    32  28  86 NW8       30.34S WCI  25
SUNLIGHT       FAIR      30  28  93 E3        30.18R
WILKERSON PASS FOG      N/A N/A N/A E9        30.26S VSB 1/4
$$

COZ069>075-011800-
...SAN LUIS VALLEY/SANGRE DE CRISTO MOUNTAINS...

CITY           SKY/WX    TMP DP  RH WIND       PRES   REMARKS
ALAMOSA        LGT SNOW  33  29  85 W9        30.16S FOG     WCI  25
LA VETA PASS   SNOW      23  21  93 MISG      30.20F VSB 1/4
SAGUACHE       CLOUDY    41  23  48 NE7       30.17S
$$

COZ035-036-038>040-011800-
...NORTHERN COLORADO FRONT RANGE...

CITY           SKY/WX    TMP DP  RH WIND       PRES   REMARKS
DENVER INTL AP FLURRIES  35  30  82 N10       30.33R WCI  27
DMNS CITY PARK   N/A     34  33  93 N7        30.34S WCI  28
AURORA         LGT RAIN  33  33 100 N10       30.33S WCI  24
FRONT RANGE AP CLOUDY    32  32 100 N10       30.33S WCI  24
ERIE MUNI ARPT CLOUDY    36  33  90 N7        30.35S
BOULDER MUN AP CLOUDY    36  32  87 NW5       30.35S
CENTENNIAL     LGT SNOW  32  31  96 N12       30.32F FOG     WCI  23
BROOMFIELD     LGT SNOW  34  32  93 N7        30.35R WCI  28
FORT COLLINS   CLOUDY    39  30  70 N6        30.35S
LONGMONT       CLOUDY    40  32  73 N5        30.37R HAZE
$$

COZ041-046-047-076>085-087-088-011800-
...PIKES PEAK/PALMER DIVIDE AND SOUTHERN FOOTHILLS...

CITY           SKY/WX    TMP DP  RH WIND       PRES   REMARKS
COLO. SPRINGS  FLURRIES  35  27  72 N23       30.29F WCI  23
A. F. ACADEMY  MIX PCPN  32  28  86 N10       30.29S WCI  24
SCHRIEVER AFB  NOT AVBL
ELLICOTT       NOT AVBL
FALCON         CLOUDY    34  28  80 N13G20    30.30S WCI  25
FORT CARSON    FLURRIES  39  29  68 N20G28    30.27R
LIMON          CLOUDY    32  31  96 N18       30.30S WCI  20
MONUMENT HILL  FOG       28  28 100 N10       30.31S VSB 1/4 WCI  19
TRINIDAD       CLOUDY    37  31  78 N21G28    30.27S
$$

COZ042>045-048>051-090-091-011800-
...NORTHEAST COLORADO...

CITY           SKY/WX    TMP DP  RH WIND       PRES   REMARKS
GREELEY ARPT   CLOUDY    41  28  60 NE14      30.34S
AKRON          CLOUDY    36  32  85 N17       30.30S
BURLINGTON     CLOUDY    41  34  76 N21G29    30.26R
WRAY           NOT AVBL
STERLING       CLOUDY    45  34  65 N16       30.31S
HOLYOKE        NOT AVBL
FORT MORGAN    CLOUDY    43  32  65 N16       30.32S
$$

COZ086-089-092>099-011800-
...SOUTHEAST COLORADO...

CITY           SKY/WX    TMP DP  RH WIND       PRES   REMARKS
PUEBLO         CLOUDY    44  29  55 NE18      30.31R
LA JUNTA       CLOUDY    43  32  65 N23       30.27F
LAMAR          CLOUDY    44  34  67 N26G33    30.24R
SPRINGFIELD      N/A     39  31  72 N28G36    30.21R
$$




USA.gov is the U.S. government's official web portal to all federal, state and local government web resources and services.